Regional Weather Roundup
Issued by NWS

Home | Current Version | Previous Version | Graphics & Text | Print | Product List | Glossary On
Versions: 1 2 3 4 5 6 7 8 9 10 11 12 13 14 15 16 17 18 19 20 21 22 23 24 25 26 27 28 29 30 31 32 33 34 35 36 37 38 39 40 41 42 43 44 45 46 47 48 49 50
000
ASUS43 KOAX 220410
RWRNE

WEATHER ROUNDUP FOR NEBRASKA
NATIONAL WEATHER SERVICE OMAHA NE
1100 PM CDT THU MAY 21 2015

NOTES: SATELLITE DATA IS BEING USED TO AUGMENT CLOUD COVER ABOVE
       12000 FEET.
       "FAIR" INDICATES FEW OR NO CLOUDS BELOW 12,000 FEET WITH NO
       SIGNIFICANT WEATHER AND/OR OBSTRUCTIONS TO VISIBILITY.

  * THESE STATIONS DO NOT REPORT WEATHER SUCH AS RAIN...SNOW OR FOG.

NEZ001>004-019>022-054>056-220500-
NEBRASKA PANHANDLE

CITY           SKY/WX    TMP DP  RH WIND       PRES   REMARKS
SCOTTSBLUFF    CLOUDY    52  45  77 SE15      30.14R
ALLIANCE       CLOUDY    52  44  74 SE12      30.16R
CHADRON        CLOUDY    55  45  68 SE12      30.14R
KIMBALL          N/A    N/A N/A N/A MISG        N/A
SIDNEY         CLOUDY    51  44  77 SE13      30.18R
$$

NEZ057>060-069>072-079>082-220500-
SOUTHWEST NEBRASKA

CITY           SKY/WX    TMP DP  RH WIND       PRES   REMARKS
NORTH PLATTE   CLOUDY    54  42  64 S7        30.21R
IMPERIAL       CLOUDY    52  45  77 SE6       30.19R
LEXINGTON      PTCLDY    50  43  76 S3        30.22R
MCCOOK         CLOUDY    52  43  71 SE7       30.21R
OGALLALA       CLOUDY    54  45  72 SE5       30.18S
$$

NEZ005>010-023>029-035>040-094-220500-
NORTH CENTRAL NEBRASKA

CITY           SKY/WX    TMP DP  RH WIND       PRES   REMARKS
VALENTINE      CLEAR     52  36  54 SE10      30.18R
AINSWORTH      CLEAR     49  37  64 S5        30.19S
BROKEN BOW     PTCLDY    46  42  86 CALM      30.20R
O`NEILL        CLEAR     55  38  51 SW3       30.20R
ORD            PTCLDY    49  38  65 CALM      30.20R
THEDFORD       CLOUDY    54  41  62 SE8       30.20R
$$

NEZ041-046>049-061>064-073>077-083>087-220500-
SOUTH CENTRAL NEBRASKA

CITY           SKY/WX    TMP DP  RH WIND       PRES   REMARKS
GRAND ISLAND   PTCLDY    54  40  59 CALM      30.23R
AURORA         PTCLDY    55  39  55 CALM      30.22R
HASTINGS       PTCLDY    54  39  57 S5        30.22R
HEBRON         MOCLDY    55  41  60 SW3       30.23R
HOLDREGE       MOCLDY    51  40  65 S5        30.22R
KEARNEY *      PTCLDY    54  39  58 S5        30.22S
YORK           PTCLDY    54  45  71 CALM      30.23R
$$

NEZ011>018-030>034-042>045-220500-
NORTHEAST NEBRASKA

CITY           SKY/WX    TMP DP  RH WIND       PRES   REMARKS
NORFOLK        CLEAR     51  40  65 SW9       30.19R
ALBION         PTCLDY    49  39  68 CALM      30.21R
BLAIR          CLEAR     58  40  51 SW7       30.17S
COLUMBUS *     CLEAR     57  37  47 SW6       30.23R
FREMONT        CLEAR     60  39  46 SW9       30.18S
TEKAMAH        CLEAR     59  40  49 W12       30.16R
WAYNE          FAIR      47  39  74 SW3       30.17S
$$

NEZ050>053-065>068-078-088>093-220500-
SOUTHEAST NEBRASKA

CITY           SKY/WX    TMP DP  RH WIND       PRES   REMARKS
LINCOLN        PTCLDY    58  41  53 W5        30.21R
OMAHA EPPLEY   PTCLDY    62  40  44 W6        30.17R
BEATRICE       PTCLDY    54  45  69 CALM      30.23R
FALLS CITY     PTCLDY    57  43  59 SW8       30.19R
NEBRASKA CITY  PTCLDY    52  39  60 SW8       30.19R
PLATTSMOUTH    PTCLDY    57  39  51 SW5       30.18S
$$

NEZ044-045-051>053-067-220500-
OMAHA AREA

CITY           SKY/WX    TMP DP  RH WIND       PRES   REMARKS
OMAHA EPPLEY   PTCLDY    62  40  44 W6        30.17R
BLAIR          CLEAR     58  40  51 SW7       30.17S
FREMONT        CLEAR     60  39  46 SW9       30.18S
MILLARD        CLEAR     61  42  50 W3        30.18S
OFFUTT AFB     CLEAR     59  42  52 W5        30.17R
PLATTSMOUTH    PTCLDY    57  39  51 SW5       30.18S
WAHOO          FAIR      57  43  57 W7        30.19R
$$



USA.gov is the U.S. government's official web portal to all federal, state and local government web resources and services.